TimeEST,TemperatureF,Dew PointF,Humidity,Sea Level PressureIn,VisibilityMPH,Wind Direction,Wind SpeedMPH,Gust SpeedMPH,PrecipitationIn,Events,Conditions,WindDirDegrees,DateUTC
12:15 AM,53.6,51.8,94,30.08,10.0,Calm,Calm,-,N/A,,Mostly Cloudy,0,2013-02-06 05:15:00
12:35 AM,53.6,51.8,94,30.08,10.0,Calm,Calm,-,N/A,,Mostly Cloudy,0,2013-02-06 05:35:00
12:55 AM,53.6,53.6,100,30.07,10.0,Calm,Calm,-,N/A,,Partly Cloudy,0,2013-02-06 05:55:00
1:15 AM,53.6,53.6,100,30.07,10.0,Calm,Calm,-,N/A,,Mostly Cloudy,0,2013-02-06 06:15:00
1:35 AM,55.4,53.6,94,30.07,10.0,Calm,Calm,-,N/A,,Mostly Cloudy,0,2013-02-06 06:35:00
1:55 AM,55.4,53.6,94,30.07,8.0,Calm,Calm,-,N/A,Rain,Light Rain,0,2013-02-06 06:55:00
2:35 AM,53.6,53.6,100,30.07,10.0,Calm,Calm,-,N/A,,Scattered Clouds,0,2013-02-06 07:35:00
2:55 AM,53.6,53.6,100,30.06,10.0,Calm,Calm,-,N/A,,Scattered Clouds,0,2013-02-06 07:55:00
3:15 AM,53.6,53.6,100,30.07,10.0,Calm,Calm,-,N/A,,Mostly Cloudy,0,2013-02-06 08:15:00
3:35 AM,55.4,55.4,100,30.07,10.0,Calm,Calm,-,N/A,,Overcast,0,2013-02-06 08:35:00
3:55 AM,53.6,53.6,100,30.07,10.0,Calm,Calm,-,N/A,,Overcast,0,2013-02-06 08:55:00
4:15 AM,55.4,53.6,94,30.07,10.0,South,3.5,-,N/A,,Overcast,180,2013-02-06 09:15:00
5:15 AM,55.4,55.4,100,30.09,3.0,Calm,Calm,-,N/A,Rain,Light Rain,0,2013-02-06 10:15:00
5:55 AM,55.4,55.4,100,30.10,7.0,Calm,Calm,-,N/A,,Overcast,0,2013-02-06 10:55:00
6:15 AM,55.4,55.4,100,30.11,5.0,Calm,Calm,-,N/A,,Overcast,0,2013-02-06 11:15:00
6:35 AM,55.4,55.4,100,30.11,2.0,Calm,Calm,-,N/A,,Overcast,0,2013-02-06 11:35:00
6:50 AM,55.4,55.4,100,30.11,5.0,Calm,Calm,-,N/A,,Mostly Cloudy,0,2013-02-06 11:50:00
7:50 AM,55.4,55.4,100,30.12,5.0,NNE,5.8,-,N/A,,Overcast,20,2013-02-06 12:50:00
8:50 AM,55.4,55.4,100,30.14,7.0,NNE,3.5,-,N/A,,Overcast,30,2013-02-06 13:50:00
9:50 AM,59.0,57.2,94,30.16,7.0,Calm,Calm,-,N/A,,Mostly Cloudy,0,2013-02-06 14:50:00
11:50 AM,64.4,57.2,77,30.16,7.0,Variable,4.6,-,N/A,,Mostly Cloudy,0,2013-02-06 16:50:00
12:50 PM,66.2,57.2,73,30.14,10.0,SE,4.6,-,N/A,,Scattered Clouds,140,2013-02-06 17:50:00
1:50 PM,66.2,57.2,73,30.12,10.0,Calm,Calm,-,N/A,,Overcast,0,2013-02-06 18:50:00
2:50 PM,68.0,57.2,68,30.10,10.0,Calm,Calm,-,N/A,,Overcast,0,2013-02-06 19:50:00
3:50 PM,66.2,57.2,73,30.10,10.0,SE,5.8,-,N/A,,Overcast,140,2013-02-06 20:50:00
4:50 PM,66.2,57.2,73,30.11,10.0,Calm,Calm,-,N/A,,Overcast,0,2013-02-06 21:50:00
5:50 PM,64.4,59.0,83,30.11,10.0,Variable,3.5,-,N/A,,Overcast,0,2013-02-06 22:50:00
6:50 PM,62.6,55.4,77,30.12,10.0,Variable,4.6,-,N/A,,Mostly Cloudy,0,2013-02-06 23:50:00
8:15 PM,62.6,55.4,77,30.13,10.0,Calm,Calm,-,N/A,,Overcast,0,2013-02-07 01:15:00
8:35 PM,60.8,55.4,82,30.13,10.0,Calm,Calm,-,N/A,,Mostly Cloudy,0,2013-02-07 01:35:00
8:55 PM,59.0,55.4,88,30.14,10.0,Calm,Calm,-,N/A,,Scattered Clouds,0,2013-02-07 01:55:00
9:15 PM,57.2,53.6,88,30.14,10.0,Calm,Calm,-,N/A,,Mostly Cloudy,0,2013-02-07 02:15:00
9:35 PM,57.2,53.6,88,30.14,10.0,Calm,Calm,-,N/A,,Mostly Cloudy,0,2013-02-07 02:35:00
9:55 PM,57.2,55.4,94,30.14,10.0,Calm,Calm,-,N/A,,Mostly Cloudy,0,2013-02-07 02:55:00
10:15 PM,55.4,53.6,94,30.14,10.0,Calm,Calm,-,N/A,,Mostly Cloudy,0,2013-02-07 03:15:00
10:35 PM,57.2,55.4,94,30.14,10.0,Calm,Calm,-,N/A,,Mostly Cloudy,0,2013-02-07 03:35:00
10:55 PM,57.2,55.4,94,30.14,10.0,Calm,Calm,-,N/A,,Mostly Cloudy,0,2013-02-07 03:55:00
11:15 PM,57.2,55.4,94,30.13,10.0,Calm,Calm,-,N/A,,Mostly Cloudy,0,2013-02-07 04:15:00
11:35 PM,59.0,55.4,88,30.13,10.0,Calm,Calm,-,N/A,,Mostly Cloudy,0,2013-02-07 04:35:00
11:55 PM,59.0,57.2,94,30.12,10.0,Calm,Calm,-,N/A,,Mostly Cloudy,0,2013-02-07 04:55:00